Tracking 18624 objects as of 26-April-2017
HD Live streaming from Space Station
objects crossing your sky now

COSMOS 785

Track COSMOS 785 now!
10-day predictions
COSMOS 785 is classified as:


NORAD ID: 8473
Int'l Code: 1975-116A
Perigee: 906.1 km
Apogee: 1,020.6 km
Inclination: 65.1 °
Period: 104.2 minutes
Semi major axis: 7334 km
RCS: 3.5974 m2 (large)
Launch date: December 12, 1975
Source: Commonwealth of Independent States (former USSR) (CIS)
Launch site: TYURATAM MISSILE AND SPACE COMPLEX (TTMTR)
Your satellite tracking list
Your tracking list is empty





NASA's NSSDC Master Catalog

Two Line Element Set (TLE):
1  8473U 75116A   17114.88904535 -.00000075 +00000-0 +11255-4 0  9999
2  8473 065.0774 315.2017 0078058 001.4479 358.6792 13.82168575087668
Source of the keplerian elements: AFSPC